Location: Boca do Mato
(22.9085°S, 43.2930°W)
Time: 22:27:32
(UTC+00:00)

Delta 7925 Rocket - Pass Details

Date: 14 July 2020
Orbit: 645 x 1647 km, 26.3° (Epoch: 10 August)

Event Time Altitude Azimuth Distance (km) Brightness Sun altitude
Exits shadow 08:26:09 26° 246° (WSW) 1,279 4.1 -15.4°
Maximum altitude 08:28:38 58° 176° (S) 757 3.4 -14.9°
Drops below altitude 10° 08:33:23 10° 96° (E) 2,130 6.9 -13.8°
Sets 08:35:57 0° 92° (E) 3,129 8.1 -13.3°
